IGO297P VEBN-VIDP

Flight info

Callsign IGO297P
Flight time 1h 19m
Altitude 32000
Route BBN R460 LKN R594 JAL JAL7Q
Aircraft A320/M-SDE3FGHIRWY/LB1

Departure

Time 2026-05-08 10:16
Airport Lal Bahadur Shastri International Airport (VEBN)

Arrival

Time 2026-05-08 11:35
Airport Indira Gandhi International Airport (VIDP)
Time Latitude Longitude Altitude Speed Heading
2026-05-08 09:39 25.44951 82.85632 280 ft 0 kts 186°
2026-05-08 10:04 25.44953 82.85632 278 ft 2 kts 186°
2026-05-08 10:04 25.44971 82.85634 285 ft 2 kts 186°
2026-05-08 10:04 25.44988 82.85636 280 ft 2 kts 186°
2026-05-08 10:04 25.45003 82.85643 279 ft 2 kts 254°
2026-05-08 10:05 25.45004 82.85645 279 ft 0 kts 259°
2026-05-08 10:07 25.45002 82.85636 280 ft 2 kts 259°
2026-05-08 10:07 25.45001 82.85612 277 ft 4 kts 268°
2026-05-08 10:08 25.45002 82.85573 277 ft 6 kts 277°
2026-05-08 10:08 25.45026 82.85541 277 ft 6 kts 348°
2026-05-08 10:08 25.45075 82.85538 277 ft 9 kts
2026-05-08 10:08 25.45147 82.85542 277 ft 12 kts
2026-05-08 10:09 25.45230 82.85579 277 ft 14 kts 58°
2026-05-08 10:09 25.45234 82.85687 278 ft 15 kts 89°
2026-05-08 10:09 25.45230 82.85808 278 ft 17 kts 93°
2026-05-08 10:09 25.45223 82.85946 278 ft 19 kts 93°
2026-05-08 10:10 25.45216 82.86103 278 ft 22 kts 93°
2026-05-08 10:10 25.45208 82.86276 281 ft 23 kts 92°
2026-05-08 10:10 25.45199 82.86465 277 ft 26 kts 95°
2026-05-08 10:10 25.45184 82.86665 277 ft 27 kts 93°
2026-05-08 10:11 25.45178 82.86876 278 ft 28 kts 91°
2026-05-08 10:11 25.45166 82.87090 278 ft 26 kts 93°
2026-05-08 10:11 25.45156 82.87287 281 ft 25 kts 92°
2026-05-08 10:11 25.45158 82.87412 280 ft 14 kts 74°
2026-05-08 10:12 25.45176 82.87521 284 ft 15 kts 119°
2026-05-08 10:12 25.45146 82.87517 280 ft 4 kts 248°
2026-05-08 10:12 25.45146 82.87482 280 ft 5 kts 276°
2026-05-08 10:12 25.45147 82.87471 267 ft 0 kts 276°
2026-05-08 10:14 25.45148 82.87469 265 ft 0 kts 276°
2026-05-08 10:15 25.45148 82.87463 272 ft 10 kts 276°
2026-05-08 10:15 25.45167 82.87060 278 ft 97 kts 274°
2026-05-08 10:15 25.45223 82.86040 279 ft 164 kts 274°
2026-05-08 10:15 25.45281 82.84636 635 ft 194 kts 274°
2026-05-08 10:16 25.45347 82.83086 1304 ft 202 kts 273°
2026-05-08 10:16 25.45401 82.81457 1630 ft 223 kts 273°
2026-05-08 10:16 25.45338 82.79656 1916 ft 248 kts 256°
2026-05-08 10:16 25.44484 82.77929 2361 ft 267 kts 226°
2026-05-08 10:17 25.42927 82.76840 3042 ft 275 kts 198°
2026-05-08 10:17 25.41023 82.76663 3832 ft 279 kts 170°
2026-05-08 10:17 25.39229 82.77468 4635 ft 282 kts 143°
2026-05-08 10:17 25.37942 82.79091 5418 ft 285 kts 117°
2026-05-08 10:18 25.37425 82.81210 6159 ft 291 kts 90°
2026-05-08 10:18 25.37800 82.83410 6813 ft 295 kts 63°
2026-05-08 10:18 25.38979 82.85247 7514 ft 294 kts 38°
2026-05-08 10:18 25.40741 82.86317 8237 ft 289 kts
2026-05-08 10:19 25.42711 82.86391 8994 ft 283 kts 346°
2026-05-08 10:19 25.44576 82.85758 9575 ft 280 kts 330°
2026-05-08 10:19 25.46156 82.84596 9943 ft 276 kts 315°
2026-05-08 10:20 25.48724 82.81079 10478 ft 313 kts 306°
2026-05-08 10:20 25.50042 82.79121 11017 ft 320 kts 306°
2026-05-08 10:20 25.51382 82.77141 11647 ft 323 kts 306°
2026-05-08 10:20 25.52738 82.75140 12302 ft 327 kts 306°
2026-05-08 10:21 25.54109 82.73118 12951 ft 330 kts 306°
2026-05-08 10:21 25.55491 82.71078 13596 ft 333 kts 306°
2026-05-08 10:21 25.56867 82.69043 14154 ft 336 kts 306°
2026-05-08 10:21 25.58271 82.66966 14730 ft 338 kts 306°
2026-05-08 10:22 25.59687 82.64869 15293 ft 341 kts 306°
2026-05-08 10:22 25.61110 82.62759 15883 ft 343 kts 306°
2026-05-08 10:22 25.62542 82.60634 16460 ft 345 kts 305°
2026-05-08 10:22 25.63982 82.58493 17034 ft 348 kts 305°
2026-05-08 10:23 25.65434 82.56334 17603 ft 350 kts 305°
2026-05-08 10:23 25.66895 82.54161 18146 ft 353 kts 305°
2026-05-08 10:23 25.68369 82.51972 18631 ft 356 kts 305°
2026-05-08 10:23 25.69856 82.49767 19116 ft 359 kts 305°
2026-05-08 10:24 25.71355 82.47542 19596 ft 362 kts 305°
2026-05-08 10:24 25.72867 82.45295 20079 ft 365 kts 305°
2026-05-08 10:24 25.74370 82.43063 20538 ft 368 kts 305°
2026-05-08 10:24 25.75909 82.40777 21015 ft 371 kts 305°
2026-05-08 10:25 25.77455 82.38475 21486 ft 373 kts 305°
2026-05-08 10:25 25.79012 82.36154 21756 ft 375 kts 305°
2026-05-08 10:25 25.80568 82.33830 21810 ft 376 kts 305°
2026-05-08 10:25 25.82127 82.31502 21830 ft 377 kts 305°
2026-05-08 10:26 25.83695 82.29159 22293 ft 379 kts 305°
2026-05-08 10:26 25.85274 82.26802 22769 ft 381 kts 305°
2026-05-08 10:26 25.86863 82.24428 23233 ft 384 kts 305°
2026-05-08 10:26 25.88439 82.22070 23621 ft 387 kts 305°
2026-05-08 10:27 25.90045 82.19663 24000 ft 389 kts 305°
2026-05-08 10:27 25.91661 82.17243 24382 ft 391 kts 305°
2026-05-08 10:27 25.93286 82.14808 24764 ft 393 kts 305°
2026-05-08 10:27 25.94919 82.12365 25144 ft 395 kts 304°
2026-05-08 10:28 25.96566 82.09905 25528 ft 397 kts 304°
2026-05-08 10:28 25.98217 82.07436 25911 ft 399 kts 304°
2026-05-08 10:28 25.99877 82.04951 26273 ft 401 kts 304°
2026-05-08 10:28 26.01543 82.02451 26631 ft 403 kts 304°
2026-05-08 10:29 26.03193 81.99970 26978 ft 406 kts 304°
2026-05-08 10:29 26.04872 81.97440 27358 ft 408 kts 304°
2026-05-08 10:29 26.06560 81.94894 27711 ft 410 kts 304°
2026-05-08 10:29 26.08259 81.92332 28071 ft 412 kts 304°
2026-05-08 10:30 26.09967 81.89759 28427 ft 415 kts 304°
2026-05-08 10:30 26.11686 81.87171 28783 ft 417 kts 304°
2026-05-08 10:30 26.13415 81.84570 29133 ft 419 kts 304°
2026-05-08 10:30 26.15155 81.81952 29474 ft 422 kts 304°
2026-05-08 10:31 26.16903 81.79319 29814 ft 424 kts 304°
2026-05-08 10:31 26.18634 81.76710 30151 ft 425 kts 303°
2026-05-08 10:31 26.20384 81.74071 30560 ft 423 kts 303°
2026-05-08 10:31 26.22126 81.71437 30969 ft 422 kts 303°
2026-05-08 10:32 26.23861 81.68810 31373 ft 420 kts 303°
2026-05-08 10:32 26.25593 81.66190 31710 ft 420 kts 303°
2026-05-08 10:32 26.27321 81.63575 31802 ft 416 kts 303°
2026-05-08 10:33 26.30712 81.58439 31819 ft 409 kts 303°
2026-05-08 10:33 26.34053 81.53365 31818 ft 408 kts 303°
2026-05-08 10:34 26.37410 81.48262 31815 ft 408 kts 303°
2026-05-08 10:34 26.40769 81.43156 31815 ft 408 kts 303°
2026-05-08 10:35 26.44127 81.38046 31823 ft 408 kts 303°
2026-05-08 10:35 26.47481 81.32933 31819 ft 408 kts 303°
2026-05-08 10:36 26.50811 81.27852 31817 ft 408 kts 303°
2026-05-08 10:36 26.54166 81.22737 31818 ft 408 kts 303°
2026-05-08 10:37 26.57515 81.17622 31821 ft 408 kts 303°
2026-05-08 10:37 26.60834 81.12538 31841 ft 408 kts 304°
2026-05-08 10:38 26.64179 81.07417 31830 ft 408 kts 304°
2026-05-08 10:38 26.67519 81.02288 31823 ft 408 kts 304°
2026-05-08 10:39 26.70856 80.97144 31826 ft 409 kts 304°
2026-05-08 10:39 26.74198 80.92001 31817 ft 409 kts 304°
2026-05-08 10:40 26.77603 80.86954 31819 ft 409 kts 307°
2026-05-08 10:40 26.81316 80.82120 31825 ft 410 kts 309°
2026-05-08 10:41 26.85094 80.77351 31823 ft 409 kts 308°
2026-05-08 10:41 26.88819 80.72546 31839 ft 409 kts 308°
2026-05-08 10:42 26.92508 80.67700 31822 ft 409 kts 308°
2026-05-08 10:42 26.96166 80.62872 31816 ft 409 kts 308°
2026-05-08 10:43 26.99858 80.58009 31814 ft 410 kts 308°
2026-05-08 10:43 27.03561 80.53145 31804 ft 410 kts 308°
2026-05-08 10:44 27.07259 80.48277 31812 ft 410 kts 308°
2026-05-08 10:44 27.10904 80.43475 31813 ft 410 kts 308°
2026-05-08 10:45 27.14599 80.38610 31840 ft 409 kts 308°
2026-05-08 10:45 27.18285 80.33734 31831 ft 410 kts 308°
2026-05-08 10:46 27.22008 80.28886 31843 ft 410 kts 314°
2026-05-08 10:46 27.25718 80.24079 31825 ft 410 kts 308°
2026-05-08 10:47 27.29339 80.19126 31819 ft 410 kts 308°
2026-05-08 10:47 27.32996 80.14203 31813 ft 410 kts 309°
2026-05-08 10:48 27.36684 80.09310 31818 ft 410 kts 309°
2026-05-08 10:48 27.40344 80.04457 31819 ft 409 kts 309°
2026-05-08 10:49 27.44024 79.99565 31825 ft 409 kts 309°
2026-05-08 10:49 27.47697 79.94665 31819 ft 410 kts 309°
2026-05-08 10:50 27.51370 79.89755 31815 ft 410 kts 309°
2026-05-08 10:50 27.55045 79.84844 31811 ft 410 kts 309°
2026-05-08 10:51 27.58695 79.79962 31811 ft 410 kts 309°
2026-05-08 10:51 27.62369 79.75045 31810 ft 410 kts 309°
2026-05-08 10:52 27.66036 79.70133 31812 ft 409 kts 309°
2026-05-08 10:52 27.69661 79.65190 31825 ft 408 kts 304°
2026-05-08 10:53 27.72809 79.59908 31815 ft 409 kts 303°
2026-05-08 10:53 27.75972 79.54575 31809 ft 409 kts 303°
2026-05-08 10:54 27.79135 79.49238 31794 ft 409 kts 303°
2026-05-08 10:54 27.82296 79.43894 31807 ft 409 kts 303°
2026-05-08 10:55 27.85432 79.38586 31804 ft 409 kts 303°
2026-05-08 10:55 27.88595 79.33248 31808 ft 408 kts 303°
2026-05-08 10:56 27.91748 79.27910 31805 ft 408 kts 303°
2026-05-08 10:56 27.94893 79.22572 31804 ft 408 kts 303°
2026-05-08 10:57 27.98013 79.17268 31804 ft 408 kts 303°
2026-05-08 10:57 28.02725 79.09258 31810 ft 407 kts 303°
2026-05-08 10:58 28.05866 79.03921 31795 ft 407 kts 303°
2026-05-08 10:58 28.08998 78.98580 31804 ft 407 kts 303°
2026-05-08 10:59 28.11813 78.93087 31808 ft 407 kts 296°
2026-05-08 10:59 28.14256 78.87331 31610 ft 400 kts 296°
2026-05-08 11:00 28.15458 78.84508 31367 ft 396 kts 296°
2026-05-08 11:00 28.16649 78.81710 31129 ft 393 kts 296°
2026-05-08 11:00 28.17836 78.78923 30891 ft 392 kts 296°
2026-05-08 11:00 28.19020 78.76146 30652 ft 391 kts 296°
2026-05-08 11:01 28.20198 78.73375 30439 ft 390 kts 296°
2026-05-08 11:01 28.21355 78.70646 30210 ft 389 kts 296°
2026-05-08 11:01 28.22527 78.67884 29995 ft 389 kts 297°
2026-05-08 11:01 28.23701 78.65122 29736 ft 389 kts 297°
2026-05-08 11:02 28.24874 78.62362 29459 ft 388 kts 297°
2026-05-08 11:02 28.27200 78.56875 28915 ft 384 kts 297°
2026-05-08 11:02 28.28354 78.54148 28642 ft 382 kts 297°
2026-05-08 11:03 28.29500 78.51433 28387 ft 381 kts 297°
2026-05-08 11:03 28.30642 78.48730 28123 ft 379 kts 297°
2026-05-08 11:03 28.31765 78.46075 27870 ft 377 kts 297°
2026-05-08 11:03 28.32897 78.43396 27612 ft 376 kts 297°
2026-05-08 11:04 28.34023 78.40727 27364 ft 374 kts 297°
2026-05-08 11:04 28.35142 78.38068 27111 ft 373 kts 297°
2026-05-08 11:04 28.35880 78.36310 26946 ft 371 kts 297°
2026-05-08 11:04 28.36990 78.33669 26694 ft 370 kts 297°
2026-05-08 11:05 28.38466 78.30154 26365 ft 368 kts 297°
2026-05-08 11:05 28.39194 78.28420 26205 ft 367 kts 297°
2026-05-08 11:05 28.40290 78.25808 25966 ft 365 kts 297°
2026-05-08 11:05 28.41691 78.22347 25650 ft 364 kts 292°
2026-05-08 11:06 28.42358 78.19577 25407 ft 365 kts 282°
2026-05-08 11:06 28.42549 78.16700 25168 ft 367 kts 271°
2026-05-08 11:06 28.42438 78.14786 25020 ft 367 kts 268°
2026-05-08 11:06 28.42161 78.10927 24709 ft 365 kts 269°
2026-05-08 11:07 28.41963 78.08057 24485 ft 364 kts 269°
2026-05-08 11:07 28.41834 78.06165 24334 ft 363 kts 269°
2026-05-08 11:07 28.41577 78.02389 24034 ft 361 kts 269°
2026-05-08 11:07 28.41383 77.99551 23810 ft 360 kts 269°
2026-05-08 11:08 28.41188 77.96726 23590 ft 358 kts 269°
2026-05-08 11:08 28.40991 77.93910 23346 ft 356 kts 269°
2026-05-08 11:08 28.40795 77.91109 22660 ft 360 kts 269°
2026-05-08 11:08 28.40593 77.88220 21572 ft 374 kts 269°
2026-05-08 11:09 28.40454 77.86248 20841 ft 383 kts 268°
2026-05-08 11:09 28.40237 77.83189 19742 ft 395 kts 268°
2026-05-08 11:09 28.40013 77.80028 18607 ft 407 kts 267°
2026-05-08 11:09 28.39705 77.75715 16991 ft 420 kts 267°
2026-05-08 11:10 28.39463 77.72412 16073 ft 419 kts 267°
2026-05-08 11:10 28.39267 77.69131 15293 ft 414 kts 269°
2026-05-08 11:10 28.39200 77.65881 14570 ft 409 kts 271°
2026-05-08 11:10 28.39208 77.63748 14190 ft 405 kts 272°
2026-05-08 11:11 28.39260 77.60614 13949 ft 389 kts 273°
2026-05-08 11:11 28.39321 77.57599 13704 ft 375 kts 273°
2026-05-08 11:11 28.39369 77.54697 13392 ft 362 kts 273°
2026-05-08 11:11 28.39403 77.51806 12242 ft 372 kts 272°
2026-05-08 11:12 28.39422 77.48819 11090 ft 384 kts 271°
2026-05-08 11:12 28.39430 77.45779 10267 ft 385 kts 271°
2026-05-08 11:12 28.39430 77.42831 9967 ft 370 kts 271°
2026-05-08 11:12 28.39428 77.39971 9757 ft 355 kts 271°
2026-05-08 11:13 28.39426 77.37242 9632 ft 338 kts 270°
2026-05-08 11:13 28.39424 77.34634 9504 ft 323 kts 271°
2026-05-08 11:13 28.39441 77.32083 8771 ft 328 kts 274°
2026-05-08 11:13 28.39863 77.29491 7762 ft 341 kts 283°
2026-05-08 11:14 28.40432 77.26879 7343 ft 334 kts 283°
2026-05-08 11:14 28.40971 77.24422 7213 ft 307 kts 283°
2026-05-08 11:14 28.41467 77.22161 7093 ft 284 kts 283°
2026-05-08 11:14 28.41926 77.20063 6970 ft 264 kts 283°
2026-05-08 11:15 28.42347 77.18134 6859 ft 246 kts 283°
2026-05-08 11:15 28.42743 77.16311 6743 ft 229 kts 283°
2026-05-08 11:15 28.43109 77.14613 6630 ft 214 kts 283°
2026-05-08 11:15 28.43450 77.13028 6527 ft 197 kts 282°
2026-05-08 11:16 28.43762 77.11587 6401 ft 180 kts 282°
2026-05-08 11:16 28.44065 77.10185 5794 ft 190 kts 282°
2026-05-08 11:16 28.44395 77.08649 5005 ft 209 kts 283°
2026-05-08 11:16 28.44748 77.07003 4463 ft 213 kts 283°
2026-05-08 11:17 28.45081 77.05446 4332 ft 192 kts 284°
2026-05-08 11:17 28.45381 77.04055 4207 ft 177 kts 284°
2026-05-08 11:17 28.45670 77.02719 4084 ft 172 kts 284°
2026-05-08 11:17 28.45956 77.01393 3968 ft 173 kts 284°
2026-05-08 11:18 28.46239 77.00085 3847 ft 169 kts 283°
2026-05-08 11:18 28.46520 76.98781 3720 ft 170 kts 284°
2026-05-08 11:18 28.46803 76.97464 3604 ft 173 kts 283°
2026-05-08 11:18 28.47087 76.96145 3485 ft 171 kts 284°
2026-05-08 11:19 28.47370 76.94827 3367 ft 172 kts 284°
2026-05-08 11:19 28.47651 76.93510 3259 ft 169 kts 284°
2026-05-08 11:19 28.47922 76.92238 3133 ft 167 kts 284°
2026-05-08 11:19 28.48199 76.90951 3016 ft 169 kts 284°
2026-05-08 11:20 28.48476 76.89663 2914 ft 166 kts 285°
2026-05-08 11:20 28.48749 76.88384 2991 ft 168 kts 284°
2026-05-08 11:20 28.49027 76.87089 2997 ft 170 kts 285°
2026-05-08 11:20 28.49308 76.85780 2995 ft 171 kts 285°
2026-05-08 11:21 28.49589 76.84473 2998 ft 171 kts 284°
2026-05-08 11:21 28.49884 76.83154 2991 ft 171 kts 287°
2026-05-08 11:21 28.50211 76.81866 2992 ft 169 kts 287°
2026-05-08 11:21 28.50542 76.80601 2992 ft 169 kts 287°
2026-05-08 11:22 28.50875 76.79319 2991 ft 169 kts 287°
2026-05-08 11:22 28.51206 76.78049 2984 ft 166 kts 286°
2026-05-08 11:22 28.51535 76.76781 2995 ft 168 kts 287°
2026-05-08 11:22 28.51863 76.75516 2994 ft 168 kts 286°
2026-05-08 11:23 28.52171 76.74219 2994 ft 170 kts 281°
2026-05-08 11:23 28.52311 76.72884 2986 ft 170 kts 272°
2026-05-08 11:23 28.52372 76.71554 2996 ft 168 kts 271°
2026-05-08 11:23 28.52420 76.70226 2991 ft 167 kts 272°
2026-05-08 11:24 28.52458 76.68930 2990 ft 166 kts 270°
2026-05-08 11:24 28.52601 76.67637 2974 ft 166 kts 292°
2026-05-08 11:24 28.53283 76.66626 2984 ft 162 kts 330°
2026-05-08 11:24 28.54330 76.66275 2992 ft 157 kts
2026-05-08 11:25 28.55333 76.66656 2940 ft 154 kts 39°
2026-05-08 11:25 28.55955 76.67586 2829 ft 148 kts 73°
2026-05-08 11:25 28.56104 76.68741 2630 ft 146 kts 86°
2026-05-08 11:25 28.56190 76.69868 2586 ft 140 kts 87°
2026-05-08 11:26 28.56279 76.70964 2584 ft 141 kts 85°
2026-05-08 11:26 28.56369 76.72063 2601 ft 141 kts 86°
2026-05-08 11:26 28.56459 76.73171 2587 ft 142 kts 85°
2026-05-08 11:26 28.56549 76.74285 2590 ft 140 kts 86°
2026-05-08 11:27 28.56639 76.75391 2588 ft 142 kts 86°
2026-05-08 11:27 28.56729 76.76503 2597 ft 140 kts 87°
2026-05-08 11:27 28.56818 76.77600 2590 ft 140 kts 85°
2026-05-08 11:27 28.56908 76.78699 2593 ft 139 kts 85°
2026-05-08 11:28 28.56995 76.79795 2600 ft 139 kts 86°
2026-05-08 11:28 28.57082 76.80885 2597 ft 139 kts 84°
2026-05-08 11:28 28.57167 76.81950 2596 ft 136 kts 86°
2026-05-08 11:28 28.57253 76.83029 2589 ft 138 kts 85°
2026-05-08 11:29 28.57382 76.84109 2595 ft 138 kts 83°
2026-05-08 11:29 28.57466 76.85202 2589 ft 138 kts 87°
2026-05-08 11:29 28.57495 76.86296 2599 ft 138 kts 90°
2026-05-08 11:29 28.57497 76.87388 2592 ft 138 kts 89°
2026-05-08 11:30 28.57486 76.88465 2604 ft 134 kts 91°
2026-05-08 11:30 28.57469 76.89539 2604 ft 137 kts 90°
2026-05-08 11:30 28.57450 76.90610 2605 ft 138 kts 91°
2026-05-08 11:30 28.57428 76.91712 2601 ft 139 kts 92°
2026-05-08 11:31 28.57405 76.92807 2600 ft 139 kts 91°
2026-05-08 11:31 28.57382 76.93905 2605 ft 138 kts 92°
2026-05-08 11:31 28.57359 76.94989 2601 ft 137 kts 92°
2026-05-08 11:31 28.57335 76.96086 2608 ft 139 kts 92°
2026-05-08 11:32 28.57312 76.97187 2572 ft 140 kts 91°
2026-05-08 11:32 28.57288 76.98287 2456 ft 137 kts 91°
2026-05-08 11:32 28.57264 76.99356 2314 ft 137 kts 91°
2026-05-08 11:32 28.57241 77.00432 2150 ft 135 kts 92°
2026-05-08 11:33 28.57217 77.01504 1980 ft 138 kts 91°
2026-05-08 11:33 28.57193 77.02596 1799 ft 137 kts 91°
2026-05-08 11:33 28.57169 77.03677 1638 ft 138 kts 90°
2026-05-08 11:33 28.57145 77.04759 1468 ft 136 kts 90°
2026-05-08 11:34 28.57121 77.05828 1290 ft 133 kts 91°
2026-05-08 11:34 28.57098 77.06878 1108 ft 133 kts 89°
2026-05-08 11:34 28.57074 77.07937 929 ft 134 kts 91°
2026-05-08 11:34 28.57052 77.08989 753 ft 135 kts 91°
2026-05-08 11:35 28.57035 77.09858 751 ft 72 kts 93°
2026-05-08 11:35 28.57025 77.10097 754 ft 8 kts 91°
2026-05-08 11:35 28.57021 77.10290 758 ft 39 kts 91°
2026-05-08 11:35 28.57014 77.10617 765 ft 53 kts 91°
2026-05-08 11:36 28.56986 77.10946 773 ft 29 kts 133°
2026-05-08 11:36 28.56853 77.11069 775 ft 23 kts 94°
2026-05-08 11:36 28.56847 77.11289 780 ft 30 kts 91°
2026-05-08 11:36 28.56844 77.11468 783 ft 16 kts 91°
2026-05-08 11:37 28.56769 77.11543 784 ft 17 kts 180°
2026-05-08 11:37 28.56708 77.11550 783 ft 8 kts 171°
2026-05-08 11:37 28.56703 77.11551 783 ft 0 kts 171°
2026-05-08 11:38 28.57152 77.04472 1518 ft 136 kts 89°
2026-05-08 11:38 28.57000 77.08022 917 ft 134 kts 67°
2026-05-08 11:39 28.56976 77.09216 740 ft 164 kts 53°
2026-05-08 11:39 28.56965 77.09812 747 ft 168 kts 71°
2026-05-08 11:39 28.56952 77.10110 750 ft 170 kts 19°
2026-05-08 11:39 28.57080 77.04449 1517 ft 182 kts 68°
2026-05-08 11:40 28.57053 77.05641 1318 ft 206 kts 20°
2026-05-08 11:40 28.57033 77.06543 1175 ft 220 kts 65°
2026-05-08 11:40 28.57006 77.07744 1009 ft 235 kts 75°
2026-05-08 11:40 28.56987 77.08639 812 ft 246 kts 67°
2026-05-08 11:41 28.56974 77.09535 744 ft 242 kts 73°
2026-05-08 11:41 28.56964 77.09832 747 ft 229 kts 75°